owner,sensor,date,latitude,longitude,vertical_datum,wind_speed,wind_to_direction,wind_speed_of_gust,qcFlag 
TABS,ioos:station:wmo:42043:1,2008-08-01T00:00:00Z,28.9818,-94.9186,4.0,7.411369644,189.9454704,9.34,'11111222,11111222,11111222' 
TABS,ioos:station:wmo:42043:1,2008-08-01T00:30:00Z,28.9818,-94.9186,4.0,7.732554558,186.6840589,9.7,'11111222,11111222,11111222' 
TABS,ioos:station:wmo:42043:1,2008-08-01T01:00:00Z,28.9818,-94.9186,4.0,7.815529413,186.8342333,10.04,'11111222,11111222,11111222' 
TABS,ioos:station:wmo:42043:1,2008-08-01T01:30:00Z,28.9818,-94.9186,4.0,7.742273568,187.2720747,10.15,'11111222,11111222,11111222' 
TABS,ioos:station:wmo:42043:1,2008-08-01T02:00:00Z,28.9818,-94.9186,4.0,7.351659677,186.7965396,9.02,'11111222,11111222,11111222' 
TABS,ioos:station:wmo:42043:1,2008-08-01T02:30:00Z,28.9818,-94.9186,4.0,7.662610521,181.4958405,9.51,'11111222,11111222,11111222' 
TABS,ioos:station:wmo:42043:1,2008-08-01T03:00:00Z,28.9818,-94.9186,4.0,7.214991337,184.7704358,8.93,'11111222,11111222,11111222' 
TABS,ioos:station:wmo:42043:1,2008-08-01T03:30:00Z,28.9818,-94.9186,4.0,6.891044914,183.244602,8.64,'11111222,11111222,11111222' 
TABS,ioos:station:wmo:42043:1,2008-08-01T04:00:00Z,28.9818,-94.9186,4.0,6.807385695,185.1412864,8.6,'11111222,11111222,11111222' 
TABS,ioos:station:wmo:42043:1,2008-08-01T04:30:00Z,28.9818,-94.9186,4.0,6.522898129,183.6039323,8.51,'11111222,11111222,11111222' 
TABS,ioos:station:wmo:42043:1,2008-08-01T05:00:00Z,28.9818,-94.9186,4.0,6.217282365,190.6594684,7.85,'11111222,11111222,11111222' 
TABS,ioos:station:wmo:42043:1,2008-08-01T05:30:00Z,28.9818,-94.9186,4.0,6.140374581,185.7015056,7.83,'11111222,11111222,11111222' 
TABS,ioos:station:wmo:42043:1,2008-08-01T06:00:00Z,28.9818,-94.9186,4.0,6.788851155,192.4191395,8.77,'11111222,11111222,11111222' 
TABS,ioos:station:wmo:42043:1,2008-08-01T06:30:00Z,28.9818,-94.9186,4.0,6.85962827,194.8670282,8.42,'11111222,11111222,11111222' 
TABS,ioos:station:wmo:42043:1,2008-08-01T07:00:00Z,28.9818,-94.9186,4.0,6.708800191,200.5961906,8.59,'11111222,11111222,11111222' 
TABS,ioos:station:wmo:42043:1,2008-08-01T07:30:00Z,28.9818,-94.9186,4.0,6.657935115,195.6855122,8.72,'11111222,11111222,11111222' 
TABS,ioos:station:wmo:42043:1,2008-08-01T08:00:00Z,28.9818,-94.9186,4.0,6.574595045,198.9036127,7.82,'11111222,11111222,11111222' 
TABS,ioos:station:wmo:42043:1,2008-08-01T08:30:00Z,28.9818,-94.9186,4.0,6.174010042,211.2185402,8.53,'11111222,11111222,11111222' 
TABS,ioos:station:wmo:42043:1,2008-08-01T09:00:00Z,28.9818,-94.9186,4.0,6.571126235,205.3172957,7.91,'11111222,11111222,11111222' 
TABS,ioos:station:wmo:42043:1,2008-08-01T09:30:00Z,28.9818,-94.9186,4.0,6.20609378,199.7781931,7.46,'11111222,11111222,11111222' 
TABS,ioos:station:wmo:42043:1,2008-08-01T10:00:00Z,28.9818,-94.9186,4.0,5.738928471,195.8770008,7.37,'11111222,11111222,11111222' 
TABS,ioos:station:wmo:42043:1,2008-08-01T10:30:00Z,28.9818,-94.9186,4.0,5.37766678,195.9748389,6.54,'11111222,11111222,11111222' 
TABS,ioos:station:wmo:42043:1,2008-08-01T11:00:00Z,28.9818,-94.9186,4.0,6.000833275,203.5748615,7.41,'11111222,11111222,11111222' 
TABS,ioos:station:wmo:42043:1,2008-08-01T11:30:00Z,28.9818,-94.9186,4.0,5.823340965,207.4012517,7.23,'11111222,11111222,11111222' 
TABS,ioos:station:wmo:42043:1,2008-08-01T12:00:00Z,28.9818,-94.9186,4.0,5.32605858,209.8384244,6.43,'11111222,11111222,11111222' 
TABS,ioos:station:wmo:42043:1,2008-08-01T12:30:00Z,28.9818,-94.9186,4.0,5.177953264,200.8152278,7.02,'11111222,11111222,11111222' 
TABS,ioos:station:wmo:42043:1,2008-08-01T13:00:00Z,28.9818,-94.9186,4.0,5.738379562,205.716768,7.61,'11111222,11111222,11111222' 
TABS,ioos:station:wmo:42043:1,2008-08-01T13:30:00Z,28.9818,-94.9186,4.0,5.118769383,212.2309509,6.05,'11111222,11111222,11111222' 
TABS,ioos:station:wmo:42043:1,2008-08-01T14:00:00Z,28.9818,-94.9186,4.0,5.320009398,216.9777203,6.49,'11111222,11111222,11111222' 
TABS,ioos:station:wmo:42043:1,2008-08-01T14:30:00Z,28.9818,-94.9186,4.0,4.416016304,233.2858829,5.92,'11111222,11111222,11111222' 
TABS,ioos:station:wmo:42043:1,2008-08-01T15:00:00Z,28.9818,-94.9186,4.0,4.121674417,230.710685,5.18,'11111222,11111222,11111222' 
TABS,ioos:station:wmo:42043:1,2008-08-01T15:30:00Z,28.9818,-94.9186,4.0,4.511873225,231.4791083,5.87,'11111222,11111222,11111222' 
TABS,ioos:station:wmo:42043:1,2008-08-01T16:00:00Z,28.9818,-94.9186,4.0,4.985709578,224.1062032,6.02,'11111222,11111222,11111222' 
TABS,ioos:station:wmo:42043:1,2008-08-01T16:30:00Z,28.9818,-94.9186,4.0,4.504542152,224.3705081,5.66,'11111222,11111222,11111222' 
TABS,ioos:station:wmo:42043:1,2008-08-01T17:00:00Z,28.9818,-94.9186,4.0,5.163768004,228.3757725,6.21,'11111222,11111222,11111222' 
TABS,ioos:station:wmo:42043:1,2008-08-01T17:30:00Z,28.9818,-94.9186,4.0,5.07212973,223.3224697,6.16,'11111222,11111222,11111222' 
TABS,ioos:station:wmo:42043:1,2008-08-01T18:00:00Z,28.9818,-94.9186,4.0,4.292842881,223.9619123,5.17,'11111222,11111222,11111222' 
TABS,ioos:station:wmo:42043:1,2008-08-01T18:30:00Z,28.9818,-94.9186,4.0,4.492137576,226.7139518,5.66,'11111222,11111222,11111222' 
TABS,ioos:station:wmo:42043:1,2008-08-01T19:00:00Z,28.9818,-94.9186,4.0,4.667343998,215.494994,5.68,'11111222,11111222,11111222' 
TABS,ioos:station:wmo:42043:1,2008-08-01T19:30:00Z,28.9818,-94.9186,4.0,5.09341732,212.4109339,6.27,'11111222,11111222,11111222' 
TABS,ioos:station:wmo:42043:1,2008-08-01T20:00:00Z,28.9818,-94.9186,4.0,5.399120299,205.3311842,6.85,'11111222,11111222,11111222' 
TABS,ioos:station:wmo:42043:1,2008-08-01T20:30:00Z,28.9818,-94.9186,4.0,5.699298202,205.126365,7.11,'11111222,11111222,11111222' 
TABS,ioos:station:wmo:42043:1,2008-08-01T21:00:00Z,28.9818,-94.9186,4.0,5.913044901,200.181954,7.36,'11111222,11111222,11111222' 
TABS,ioos:station:wmo:42043:1,2008-08-01T21:30:00Z,28.9818,-94.9186,4.0,6.266234914,197.0760095,7.75,'11111222,11111222,11111222' 
TABS,ioos:station:wmo:42043:1,2008-08-01T22:00:00Z,28.9818,-94.9186,4.0,6.600946902,199.5605687,8.5,'11111222,11111222,11111222' 
TABS,ioos:station:wmo:42043:1,2008-08-01T22:30:00Z,28.9818,-94.9186,4.0,6.204232426,193.6108553,8.34,'11111222,11111222,11111222' 
TABS,ioos:station:wmo:42043:1,2008-08-01T23:00:00Z,28.9818,-94.9186,4.0,6.204417781,189.4625105,8.42,'11111222,11111222,11111222' 
TABS,ioos:station:wmo:42043:1,2008-08-01T23:30:00Z,28.9818,-94.9186,4.0,7.130553976,193.9584679,9.57,'11111222,11111222,11111222' 
TABS,ioos:station:wmo:42043:1,2008-08-02T00:00:00Z,28.9818,-94.9186,4.0,6.747592163,193.5421503,9.12,'11111222,11111222,11111222' 
TABS,ioos:station:wmo:42043:1,2008-08-02T00:30:00Z,28.9818,-94.9186,4.0,6.3327798,191.7537097,8.18,'11111222,11111222,11111222' 
TABS,ioos:station:wmo:42043:1,2008-08-02T01:00:00Z,28.9818,-94.9186,4.0,5.645750614,199.5584163,7.45,'11111222,11111222,11111222' 
TABS,ioos:station:wmo:42043:1,2008-08-02T01:30:00Z,28.9818,-94.9186,4.0,5.311544032,194.1672329,6.92,'11111222,11111222,11111222' 
TABS,ioos:station:wmo:42043:1,2008-08-02T02:00:00Z,28.9818,-94.9186,4.0,5.588022906,194.0861569,7.2,'11111222,11111222,11111222' 
TABS,ioos:station:wmo:42043:1,2008-08-02T02:30:00Z,28.9818,-94.9186,4.0,5.36813748,192.0427574,7.29,'11111222,11111222,11111222' 
TABS,ioos:station:wmo:42043:1,2008-08-02T03:00:00Z,28.9818,-94.9186,4.0,5.735642946,192.4856488,6.92,'11111222,11111222,11111222' 
TABS,ioos:station:wmo:42043:1,2008-08-02T03:30:00Z,28.9818,-94.9186,4.0,5.923554676,193.0745453,7.33,'11111222,11111222,11111222' 
TABS,ioos:station:wmo:42043:1,2008-08-02T04:00:00Z,28.9818,-94.9186,4.0,5.969807367,191.4983407,7.56,'11111222,11111222,11111222' 
TABS,ioos:station:wmo:42043:1,2008-08-02T04:30:00Z,28.9818,-94.9186,4.0,5.784470589,192.3785787,7.33,'11111222,11111222,11111222' 
TABS,ioos:station:wmo:42043:1,2008-08-02T05:00:00Z,28.9818,-94.9186,4.0,5.847195909,198.032287,7.09,'11111222,11111222,11111222' 
TABS,ioos:station:wmo:42043:1,2008-08-02T05:30:00Z,28.9818,-94.9186,4.0,7.203283973,202.1856021,8.58,'11111222,11111222,11111222' 
TABS,ioos:station:wmo:42043:1,2008-08-02T06:00:00Z,28.9818,-94.9186,4.0,7.057031954,206.6015085,8.66,'11111222,11111222,11111222' 
TABS,ioos:station:wmo:42043:1,2008-08-02T06:30:00Z,28.9818,-94.9186,4.0,6.720364573,202.0232145,8.23,'11111222,11111222,11111222' 
TABS,ioos:station:wmo:42043:1,2008-08-02T07:00:00Z,28.9818,-94.9186,4.0,7.715601078,205.5688539,9.53,'11111222,11111222,11111222' 
TABS,ioos:station:wmo:42043:1,2008-08-02T07:30:00Z,28.9818,-94.9186,4.0,8.356949204,208.9881548,9.71,'11111222,11111222,11111222' 
TABS,ioos:station:wmo:42043:1,2008-08-02T08:00:00Z,28.9818,-94.9186,4.0,7.365874015,211.0572751,9.29,'11111222,11111222,11111222' 
TABS,ioos:station:wmo:42043:1,2008-08-02T08:30:00Z,28.9818,-94.9186,4.0,7.636707406,212.6497098,9.1,'11111222,11111222,11111222' 
TABS,ioos:station:wmo:42043:1,2008-08-02T09:00:00Z,28.9818,-94.9186,4.0,7.032304032,214.8653297,8.62,'11111222,11111222,11111222' 
TABS,ioos:station:wmo:42043:1,2008-08-02T09:30:00Z,28.9818,-94.9186,4.0,6.192002907,216.9255409,7.69,'11111222,11111222,11111222' 
TABS,ioos:station:wmo:42043:1,2008-08-02T10:00:00Z,28.9818,-94.9186,4.0,6.282817839,214.6260713,7.72,'11111222,11111222,11111222' 
TABS,ioos:station:wmo:42043:1,2008-08-02T10:30:00Z,28.9818,-94.9186,4.0,6.009600652,218.8534939,7.19,'11111222,11111222,11111222' 
TABS,ioos:station:wmo:42043:1,2008-08-02T11:00:00Z,28.9818,-94.9186,4.0,5.642783001,224.7129114,7.41,'11111222,11111222,11111222' 
TABS,ioos:station:wmo:42043:1,2008-08-02T11:30:00Z,28.9818,-94.9186,4.0,5.487312639,229.1383159,6.89,'11111222,11111222,11111222' 
TABS,ioos:station:wmo:42043:1,2008-08-02T12:00:00Z,28.9818,-94.9186,4.0,5.794523276,237.1876165,7.75,'11111222,11111222,11111222' 
TABS,ioos:station:wmo:42043:1,2008-08-02T12:30:00Z,28.9818,-94.9186,4.0,5.193476678,239.8309865,6.77,'11111222,11111222,11111222' 
TABS,ioos:station:wmo:42043:1,2008-08-02T13:00:00Z,28.9818,-94.9186,4.0,5.410813248,238.8365537,6.86,'11111222,11111222,11111222' 
TABS,ioos:station:wmo:42043:1,2008-08-02T13:30:00Z,28.9818,-94.9186,4.0,5.067316844,244.1429529,6.86,'11111222,11111222,11111222' 
TABS,ioos:station:wmo:42043:1,2008-08-02T14:00:00Z,28.9818,-94.9186,4.0,4.335308524,241.7798698,5.73,'11111222,11111222,11111222' 
TABS,ioos:station:wmo:42043:1,2008-08-02T14:30:00Z,28.9818,-94.9186,4.0,3.739959893,258.9004074,4.78,'11111222,11111222,11111222' 
TABS,ioos:station:wmo:42043:1,2008-08-02T15:00:00Z,28.9818,-94.9186,4.0,4.810405388,260.1852363,6.47,'11111222,11111222,11111222' 
TABS,ioos:station:wmo:42043:1,2008-08-02T15:30:00Z,28.9818,-94.9186,4.0,4.912321244,260.8636756,6.27,'11111222,11111222,11111222' 
TABS,ioos:station:wmo:42043:1,2008-08-02T16:00:00Z,28.9818,-94.9186,4.0,4.658164875,251.9929561,5.7,'11111222,11111222,11111222' 
TABS,ioos:station:wmo:42043:1,2008-08-02T16:30:00Z,28.9818,-94.9186,4.0,4.40596187,242.2718074,5.58,'11111222,11111222,11111222' 
TABS,ioos:station:wmo:42043:1,2008-08-02T17:00:00Z,28.9818,-94.9186,4.0,3.619419843,236.2661066,4.81,'11111222,11111222,11111222' 
TABS,ioos:station:wmo:42043:1,2008-08-02T17:30:00Z,28.9818,-94.9186,4.0,3.654832417,228.3275017,4.7,'11111222,11111222,11111222' 
TABS,ioos:station:wmo:42043:1,2008-08-02T18:00:00Z,28.9818,-94.9186,4.0,3.501785259,223.2644047,4.52,'11111222,11111222,11111222' 
TABS,ioos:station:wmo:42043:1,2008-08-02T18:30:00Z,28.9818,-94.9186,4.0,3.512036446,217.1310481,4.69,'11111222,11111222,11111222' 
TABS,ioos:station:wmo:42043:1,2008-08-02T19:00:00Z,28.9818,-94.9186,4.0,4.604052563,204.7839848,5.62,'11111222,11111222,11111222' 
TABS,ioos:station:wmo:42043:1,2008-08-02T19:30:00Z,28.9818,-94.9186,4.0,5.229885276,204.9971902,6.26,'11111222,11111222,11111222' 
TABS,ioos:station:wmo:42043:1,2008-08-02T20:00:00Z,28.9818,-94.9186,4.0,6.038915466,201.4668196,7.1,'11111222,11111222,11111222' 
TABS,ioos:station:wmo:42043:1,2008-08-02T20:30:00Z,28.9818,-94.9186,4.0,6.409251126,200.8387076,7.7,'11111222,11111222,11111222' 
TABS,ioos:station:wmo:42043:1,2008-08-02T21:00:00Z,28.9818,-94.9186,4.0,7.001178472,208.0293062,8.49,'11111222,11111222,11111222' 
TABS,ioos:station:wmo:42043:1,2008-08-02T21:30:00Z,28.9818,-94.9186,4.0,7.192364006,205.5319945,8.69,'11111222,11111222,11111222' 
TABS,ioos:station:wmo:42043:1,2008-08-02T22:00:00Z,28.9818,-94.9186,4.0,7.014050185,204.153407,8.22,'11111222,11111222,11111222' 
TABS,ioos:station:wmo:42043:1,2008-08-02T22:30:00Z,28.9818,-94.9186,4.0,7.068840075,204.9338025,8.29,'11111222,11111222,11111222' 
TABS,ioos:station:wmo:42043:1,2008-08-02T23:00:00Z,28.9818,-94.9186,4.0,7.356582087,210.0155105,8.74,'11111222,11111222,11111222' 
TABS,ioos:station:wmo:42043:1,2008-08-02T23:30:00Z,28.9818,-94.9186,4.0,7.139502784,210.8400272,8.42,'11111222,11111222,11111222' 
TABS,ioos:station:wmo:42043:1,2008-08-03T00:00:00Z,28.9818,-94.9186,4.0,7.006518394,208.2842846,8.37,'11111222,11111222,11111222' 
TABS,ioos:station:wmo:42043:1,2008-08-03T00:30:00Z,28.9818,-94.9186,4.0,7.008009703,206.1630031,8.72,'11111222,11111222,11111222' 
TABS,ioos:station:wmo:42043:1,2008-08-03T01:00:00Z,28.9818,-94.9186,4.0,7.26735853,206.2126154,8.96,'11111222,11111222,11111222' 
TABS,ioos:station:wmo:42043:1,2008-08-03T01:30:00Z,28.9818,-94.9186,4.0,6.645848328,206.0639718,7.97,'11111222,11111222,11111222' 
TABS,ioos:station:wmo:42043:1,2008-08-03T02:00:00Z,28.9818,-94.9186,4.0,6.495983374,209.208951,7.96,'11111222,11111222,11111222' 
TABS,ioos:station:wmo:42043:1,2008-08-03T02:30:00Z,28.9818,-94.9186,4.0,6.812121549,215.4400311,8.73,'11111222,11111222,11111222' 
TABS,ioos:station:wmo:42043:1,2008-08-03T03:00:00Z,28.9818,-94.9186,4.0,6.95509166,219.4576154,8.42,'11111222,11111222,11111222' 
TABS,ioos:station:wmo:42043:1,2008-08-03T03:30:00Z,28.9818,-94.9186,4.0,7.108621526,219.6921706,8.37,'11111222,11111222,11111222' 
TABS,ioos:station:wmo:42043:1,2008-08-03T04:00:00Z,28.9818,-94.9186,4.0,6.72542192,224.0964634,8.17,'11111222,11111222,11111222' 
TABS,ioos:station:wmo:42043:1,2008-08-03T04:30:00Z,28.9818,-94.9186,4.0,7.078142412,225.0573436,8.37,'11111222,11111222,11111222' 
TABS,ioos:station:wmo:42043:1,2008-08-03T05:00:00Z,28.9818,-94.9186,4.0,7.337881166,227.1538927,8.87,'11111222,11111222,11111222' 
TABS,ioos:station:wmo:42043:1,2008-08-03T05:30:00Z,28.9818,-94.9186,4.0,7.283440121,229.3988003,8.54,'11111222,11111222,11111222' 
TABS,ioos:station:wmo:42043:1,2008-08-03T06:00:00Z,28.9818,-94.9186,4.0,7.233291091,228.5310112,8.61,'11111222,11111222,11111222' 
TABS,ioos:station:wmo:42043:1,2008-08-03T06:30:00Z,28.9818,-94.9186,4.0,7.388775271,235.9228844,8.92,'11111222,11111222,11111222' 
TABS,ioos:station:wmo:42043:1,2008-08-03T07:00:00Z,28.9818,-94.9186,4.0,6.747006744,237.6526321,8.32,'11111222,11111222,11111222' 
TABS,ioos:station:wmo:42043:1,2008-08-03T07:30:00Z,28.9818,-94.9186,4.0,6.150203249,244.4766352,8.17,'11111222,11111222,11111222' 
TABS,ioos:station:wmo:42043:1,2008-08-03T08:00:00Z,28.9818,-94.9186,4.0,5.895252327,244.4782154,7.76,'11111222,11111222,11111222' 
TABS,ioos:station:wmo:42043:1,2008-08-03T08:30:00Z,28.9818,-94.9186,4.0,6.736081947,246.5557529,8.57,'11111222,11111222,11111222' 
TABS,ioos:station:wmo:42043:1,2008-08-03T09:00:00Z,28.9818,-94.9186,4.0,6.013002578,258.3910979,7.65,'11111222,11111222,11111222' 
TABS,ioos:station:wmo:42043:1,2008-08-03T09:30:00Z,28.9818,-94.9186,4.0,5.245588623,263.3220842,6.87,'11111222,11111222,11111222' 
TABS,ioos:station:wmo:42043:1,2008-08-03T10:00:00Z,28.9818,-94.9186,4.0,5.297735365,261.5334271,6.78,'11111222,11111222,11111222' 
TABS,ioos:station:wmo:42043:1,2008-08-03T10:30:00Z,28.9818,-94.9186,4.0,5.586277831,260.5208383,7.45,'11111222,11111222,11111222' 
TABS,ioos:station:wmo:42043:1,2008-08-03T11:00:00Z,28.9818,-94.9186,4.0,4.810841922,271.0719348,6.14,'11111222,11111222,11111222' 
TABS,ioos:station:wmo:42043:1,2008-08-03T11:30:00Z,28.9818,-94.9186,4.0,4.700904168,273.9032483,5.98,'11111222,11111222,11111222' 
TABS,ioos:station:wmo:42043:1,2008-08-03T12:00:00Z,28.9818,-94.9186,4.0,4.25960092,286.222504,5.66,'11111222,11111222,11111222' 
TABS,ioos:station:wmo:42043:1,2008-08-03T12:30:00Z,28.9818,-94.9186,4.0,3.228869771,318.0126752,5.01,'11111222,11111222,11111222' 
TABS,ioos:station:wmo:42043:1,2008-08-03T13:00:00Z,28.9818,-94.9186,4.0,10.60897733,52.35204648,14.43,'11111222,11111222,11111222' 
TABS,ioos:station:wmo:42043:1,2008-08-03T13:30:00Z,28.9818,-94.9186,4.0,5.285915247,70.09060445,6.8,'11111222,11111222,11111222' 
TABS,ioos:station:wmo:42043:1,2008-08-03T14:00:00Z,28.9818,-94.9186,4.0,3.453027657,137.112722,4.69,'11111222,11111222,11111222' 
TABS,ioos:station:wmo:42043:1,2008-08-03T14:30:00Z,28.9818,-94.9186,4.0,3.988984833,195.7088116,6.22,'11111222,11111222,11111222' 
TABS,ioos:station:wmo:42043:1,2008-08-03T15:00:00Z,28.9818,-94.9186,4.0,5.174417842,242.9893321,6.36,'11111222,11111222,11111222' 
TABS,ioos:station:wmo:42043:1,2008-08-03T15:30:00Z,28.9818,-94.9186,4.0,6.689603875,253.6781662,7.93,'11111222,11111222,11111222' 
TABS,ioos:station:wmo:42043:1,2008-08-03T16:00:00Z,28.9818,-94.9186,4.0,7.336381942,266.1703491,8.55,'11111222,11111222,11111222' 
TABS,ioos:station:wmo:42043:1,2008-08-03T16:30:00Z,28.9818,-94.9186,4.0,6.753702688,279.029941,8.43,'11111222,11111222,11111222' 
TABS,ioos:station:wmo:42043:1,2008-08-03T17:00:00Z,28.9818,-94.9186,4.0,4.698478477,284.9235271,5.95,'11111222,11111222,11111222' 
TABS,ioos:station:wmo:42043:1,2008-08-03T17:30:00Z,28.9818,-94.9186,4.0,3.823571629,289.2404986,4.84,'11111222,11111222,11111222' 
TABS,ioos:station:wmo:42043:1,2008-08-03T18:00:00Z,28.9818,-94.9186,4.0,3.332416541,295.4115413,4.55,'11111222,11111222,11111222' 
TABS,ioos:station:wmo:42043:1,2008-08-03T18:30:00Z,28.9818,-94.9186,4.0,3.160015823,269.8186853,4.02,'11111222,11111222,11111222' 
TABS,ioos:station:wmo:42043:1,2008-08-03T19:00:00Z,28.9818,-94.9186,4.0,2.824181297,285.610952,3.56,'11111222,11111222,11111222' 
TABS,ioos:station:wmo:42043:1,2008-08-03T19:30:00Z,28.9818,-94.9186,4.0,2.995479928,311.8875934,3.93,'11111222,11111222,11111222' 
TABS,ioos:station:wmo:42043:1,2008-08-03T20:00:00Z,28.9818,-94.9186,4.0,2.741422988,296.6584566,3.55,'11111222,11111222,11111222' 
TABS,ioos:station:wmo:42043:1,2008-08-03T20:30:00Z,28.9818,-94.9186,4.0,2.116837263,265.3937129,2.65,'11111222,11111222,11111222' 
TABS,ioos:station:wmo:42043:1,2008-08-03T21:00:00Z,28.9818,-94.9186,4.0,1.93064756,271.4840112,2.51,'11111222,11111222,11111222' 
TABS,ioos:station:wmo:42043:1,2008-08-03T21:30:00Z,28.9818,-94.9186,4.0,4.296091247,232.7567586,5.11,'11111222,11111222,11111222' 
TABS,ioos:station:wmo:42043:1,2008-08-03T22:00:00Z,28.9818,-94.9186,4.0,4.710520141,233.9816535,5.51,'11111222,11111222,11111222' 
TABS,ioos:station:wmo:42043:1,2008-08-03T22:30:00Z,28.9818,-94.9186,4.0,3.677227216,230.0748237,4.65,'11111222,11111222,11111222' 
TABS,ioos:station:wmo:42043:1,2008-08-03T23:00:00Z,28.9818,-94.9186,4.0,3.48810837,226.9750346,4.29,'11111222,11111222,11111222' 
TABS,ioos:station:wmo:42043:1,2008-08-03T23:30:00Z,28.9818,-94.9186,4.0,2.976995129,224.5918296,3.97,'11111222,11111222,11111222' 
TABS,ioos:station:wmo:42043:1,2008-08-04T00:00:00Z,28.9818,-94.9186,4.0,2.723472049,226.6366784,3.39,'11111222,11111222,11111222' 
TABS,ioos:station:wmo:42043:1,2008-08-04T00:30:00Z,28.9818,-94.9186,4.0,3.131293662,231.4831638,3.95,'11111222,11111222,11111222' 
TABS,ioos:station:wmo:42043:1,2008-08-04T01:00:00Z,28.9818,-94.9186,4.0,3.312174512,267.9237258,4.36,'11111222,11111222,11111222' 
TABS,ioos:station:wmo:42043:1,2008-08-04T01:30:00Z,28.9818,-94.9186,4.0,5.840796179,18.15550915,7.8,'11111222,11111222,11111222' 
TABS,ioos:station:wmo:42043:1,2008-08-04T02:00:00Z,28.9818,-94.9186,4.0,4.548021548,3.403231124,6.13,'11111222,11111222,11111222' 
TABS,ioos:station:wmo:42043:1,2008-08-04T02:30:00Z,28.9818,-94.9186,4.0,3.107442678,339.4653727,5.03,'11111222,11111222,11111222' 
TABS,ioos:station:wmo:42043:1,2008-08-04T03:00:00Z,28.9818,-94.9186,4.0,2.390146439,335.7939611,3.32,'11111222,11111222,11111222' 
TABS,ioos:station:wmo:42043:1,2008-08-04T03:30:00Z,28.9818,-94.9186,4.0,2.02,359.9997895,3.07,'11111222,11144222,11111222' 
TABS,ioos:station:wmo:42043:1,2008-08-04T04:00:00Z,28.9818,-94.9186,4.0,3.070928198,42.88835862,4.01,'11111222,11111222,11111222' 
TABS,ioos:station:wmo:42043:1,2008-08-04T04:30:00Z,28.9818,-94.9186,4.0,3.883979918,35.04006846,5.41,'11111222,11111222,11111222' 
TABS,ioos:station:wmo:42043:1,2008-08-04T05:00:00Z,28.9818,-94.9186,4.0,4.978965756,30.27272257,6.27,'11111222,11111222,11111222' 
TABS,ioos:station:wmo:42043:1,2008-08-04T05:30:00Z,28.9818,-94.9186,4.0,6.536665817,46.73538484,8.19,'11111222,11111222,11111222' 
TABS,ioos:station:wmo:42043:1,2008-08-04T06:00:00Z,28.9818,-94.9186,4.0,6.669647667,40.25623184,8.29,'11111222,11111222,11111222' 
TABS,ioos:station:wmo:42043:1,2008-08-04T06:30:00Z,28.9818,-94.9186,4.0,6.644072546,39.31944215,8.34,'11111222,11111222,11111222' 
TABS,ioos:station:wmo:42043:1,2008-08-04T07:00:00Z,28.9818,-94.9186,4.0,6.659204157,50.1169872,8.49,'11111222,11111222,11111222' 
TABS,ioos:station:wmo:42043:1,2008-08-04T07:30:00Z,28.9818,-94.9186,4.0,6.13374274,41.69529014,7.75,'11111222,11111222,11111222' 
TABS,ioos:station:wmo:42043:1,2008-08-04T08:00:00Z,28.9818,-94.9186,4.0,5.067672049,41.07925942,6.7,'11111222,11111222,11111222' 
TABS,ioos:station:wmo:42043:1,2008-08-04T08:30:00Z,28.9818,-94.9186,4.0,3.402837052,43.2134967,4.76,'11111222,11111222,11111222' 
TABS,ioos:station:wmo:42043:1,2008-08-04T09:00:00Z,28.9818,-94.9186,4.0,3.784032241,34.99172791,4.87,'11111222,11111222,11111222' 
TABS,ioos:station:wmo:42043:1,2008-08-04T09:30:00Z,28.9818,-94.9186,4.0,4.576330408,33.41198339,6.08,'11111222,11111222,11111222' 
TABS,ioos:station:wmo:42043:1,2008-08-04T10:00:00Z,28.9818,-94.9186,4.0,4.13407789,29.72741087,5.19,'11111222,11111222,11111222' 
TABS,ioos:station:wmo:42043:1,2008-08-04T10:30:00Z,28.9818,-94.9186,4.0,4.470984232,30.80963072,5.89,'11111222,11111222,11111222' 
TABS,ioos:station:wmo:42043:1,2008-08-04T11:00:00Z,28.9818,-94.9186,4.0,4.71118881,48.52773201,5.96,'11111222,11111222,11111222' 
TABS,ioos:station:wmo:42043:1,2008-08-04T11:30:00Z,28.9818,-94.9186,4.0,5.532829294,49.54439816,6.98,'11111222,11111222,11111222' 
TABS,ioos:station:wmo:42043:1,2008-08-04T12:00:00Z,28.9818,-94.9186,4.0,4.656908846,54.2617508,5.87,'11111222,11111222,11111222' 
TABS,ioos:station:wmo:42043:1,2008-08-04T12:30:00Z,28.9818,-94.9186,4.0,4.503443127,54.58030254,5.9,'11111222,11111222,11111222' 
TABS,ioos:station:wmo:42043:1,2008-08-04T13:00:00Z,28.9818,-94.9186,4.0,4.058595816,65.39211359,5.45,'11111222,11111222,11111222' 
TABS,ioos:station:wmo:42043:1,2008-08-04T13:30:00Z,28.9818,-94.9186,4.0,3.845321833,60.90162618,5.14,'11111222,11111222,11111222' 
TABS,ioos:station:wmo:42043:1,2008-08-04T14:00:00Z,28.9818,-94.9186,4.0,3.573639601,64.29503566,4.89,'11111222,11111222,11111222' 
TABS,ioos:station:wmo:42043:1,2008-08-04T14:30:00Z,28.9818,-94.9186,4.0,4.204200281,51.27601024,5.29,'11111222,11111222,11111222' 
TABS,ioos:station:wmo:42043:1,2008-08-04T15:00:00Z,28.9818,-94.9186,4.0,3.249015235,61.3047418,4.05,'11111222,11111222,11111222' 
TABS,ioos:station:wmo:42043:1,2008-08-04T15:30:00Z,28.9818,-94.9186,4.0,3.317604558,46.58742999,4.82,'11111222,11111222,11111222' 
TABS,ioos:station:wmo:42043:1,2008-08-04T16:00:00Z,28.9818,-94.9186,4.0,3.590891254,35.59302906,4.67,'11111222,11111222,11111222' 
TABS,ioos:station:wmo:42043:1,2008-08-04T16:30:00Z,28.9818,-94.9186,4.0,4.455389994,22.70863136,5.76,'11111222,11111222,11111222' 
TABS,ioos:station:wmo:42043:1,2008-08-04T17:00:00Z,28.9818,-94.9186,4.0,3.824042364,36.59990589,4.78,'11111222,11111222,11111222' 
TABS,ioos:station:wmo:42043:1,2008-08-04T17:30:00Z,28.9818,-94.9186,4.0,4.131742974,30.2262105,5.52,'11111222,11111222,11111222' 
TABS,ioos:station:wmo:42043:1,2008-08-04T18:00:00Z,28.9818,-94.9186,4.0,3.946770832,34.05214929,5.04,'11111222,11111222,11111222' 
TABS,ioos:station:wmo:42043:1,2008-08-04T18:30:00Z,28.9818,-94.9186,4.0,3.828903237,47.43407759,4.86,'11111222,11111222,11111222' 